Вернуться в каталог

CZ-4 DEB

АктивенPO
NORAD 20891·DEBRIS·🇨🇳 China

Запущен Sep 3, 1990 с Taiyuan Satellite Launch Center

Loading…

Ближайшие Пролёты (ближайшие 24 часа)

TLE

СвежийSource: Space-Track

Эпоха: Sep 13, 2026, 15:11 UTC

1 20891U 90081BB  26256.63266108  .00000143  00000-0  18977-3 0  9994
2 20891  98.9812 279.7304 0212635  29.3881  97.3618 13.66121817788138

Отслеживайте CZ-4 DEB в реальном времени с AllMySat

Download on the App Store